When you browse on this site, cookies collect data to enhance your experience and personalize the content and advertising you see.
Visit our Privacy Policy to learn more. By continuing to use the site, you agree to this use of cookies and data.
  • In Lithuania
  • List of Countries
  • For 7 days
  • Water Temperature
  • Weather Map
  • Weather Widgets
  • user-avatar
    Login

    Hourly Weather Livingstone

    Today, 15 November, Friday

    Time Temperature Precipitation Wind Pressure Humidity
    00:00 +24°C° 0 mm 0 mps 680 mmHg 69%
    01:00 +24°C° 0 mm 0 mps 680 mmHg 70%
    02:00 +24°C° 0 mm 0 mps 680 mmHg 70%
    03:00 +23°C° 0 mm 0 mps 680 mmHg 70%
    04:00 +23°C° 0 mm 0 mps 679 mmHg 71%
    05:00 +23°C° 0 mm 0 mps 679 mmHg 71%
    06:00 +25°C° 0 mm 0 mps 680 mmHg 65%
    07:00 +27°C° 0 mm 0 mps 681 mmHg 59%
    08:00 +31°C° 0 mm 1 mps 681 mmHg 52%
    09:00 +33°C° 0 mm 1 mps 681 mmHg 44%
    10:00 +36°C° 0 mm 1 mps 681 mmHg 36%
    11:00 +39°C° 0 mm 1 mps 681 mmHg 28%
    12:00 +39°C° 0 mm 1 mps 681 mmHg 28%
    13:00 +37°C° 0 mm 1 mps 680 mmHg 28%
    14:00 +40°C° 0 mm 2 mps 680 mmHg 18%
    15:00 +38°C° 0.5 mm 2 mps 679 mmHg 27%
    16:00 +35°C° 0.5 mm 2 mps 678 mmHg 35%
    17:00 +32°C° 0.5 mm 2 mps 677 mmHg 44%
    18:00 +31°C° 0 mm 2 mps 678 mmHg 49%
    19:00 +30°C° 0 mm 2 mps 679 mmHg 54%
    20:00 +28°C° 0 mm 3 mps 679 mmHg 59%
    21:00 +28°C° 0 mm 3 mps 679 mmHg 63%
    22:00 +27°C° 0 mm 3 mps 679 mmHg 67%
    23:00 +26°C° 0 mm 3 mps 679 mmHg 71%

    Tomorrow, 16 November, Saturday

    Time Temperature Precipitation Wind Pressure Humidity
    00:00 +26°C° 0 mm 3 mps 679 mmHg 73%
    01:00 +25°C° 0 mm 3 mps 679 mmHg 76%
    02:00 +24°C° 0 mm 2 mps 678 mmHg 78%
    03:00 +24°C° 0 mm 2 mps 678 mmHg 79%
    04:00 +24°C° 0 mm 2 mps 678 mmHg 81%
    05:00 +23°C° 0 mm 2 mps 678 mmHg 82%
    06:00 +25°C° 0 mm 2 mps 679 mmHg 75%
    07:00 +26°C° 0 mm 3 mps 679 mmHg 68%
    08:00 +28°C° 0 mm 3 mps 680 mmHg 61%
    09:00 +31°C° 0 mm 3 mps 680 mmHg 51%
    10:00 +34°C° 0 mm 3 mps 680 mmHg 41%
    11:00 +37°C° 0 mm 2 mps 680 mmHg 31%
    12:00 +38°C° 0 mm 2 mps 680 mmHg 26%
    13:00 +39°C° 0 mm 2 mps 679 mmHg 21%
    14:00 +40°C° 0 mm 2 mps 679 mmHg 17%
    15:00 +40°C° 0 mm 2 mps 678 mmHg 17%
    16:00 +39°C° 0 mm 2 mps 677 mmHg 17%
    17:00 +39°C° 0 mm 2 mps 677 mmHg 18%
    18:00 +36°C° 0 mm 1 mps 677 mmHg 21%
    19:00 +34°C° 0 mm 1 mps 677 mmHg 24%
    20:00 +30°C° 0 mm 0 mps 677 mmHg 27%
    21:00 +31°C° 0 mm 1 mps 677 mmHg 28%
    22:00 +30°C° 0 mm 1 mps 678 mmHg 29%
    23:00 +30°C° 0 mm 2 mps 678 mmHg 30%

    Day after tomorrow, 17 November, Sunday

    Time Temperature Precipitation Wind Pressure Humidity
    00:00 +29°C° 0 mm 1 mps 678 mmHg 34%
    01:00 +28°C° 0 mm 1 mps 678 mmHg 37%
    02:00 +27°C° 0 mm 1 mps 677 mmHg 41%
    03:00 +27°C° 0 mm 1 mps 677 mmHg 47%
    04:00 +26°C° 0 mm 1 mps 677 mmHg 54%
    05:00 +25°C° 0 mm 1 mps 677 mmHg 60%
    06:00 +27°C° 0 mm 2 mps 678 mmHg 56%
    07:00 +29°C° 0 mm 3 mps 679 mmHg 51%
    08:00 +31°C° 0 mm 3 mps 679 mmHg 47%
    09:00 +34°C° 0 mm 3 mps 680 mmHg 40%
    10:00 +36°C° 0 mm 4 mps 680 mmHg 34%
    11:00 +40°C° 0 mm 4 mps 680 mmHg 27%
    12:00 +39°C° 0 mm 3 mps 679 mmHg 26%
    13:00 +38°C° 0 mm 3 mps 678 mmHg 25%
    14:00 +38°C° 0 mm 2 mps 677 mmHg 24%
    15:00 +37°C° 0 mm 3 mps 677 mmHg 28%
    16:00 +35°C° 0 mm 4 mps 676 mmHg 33%
    17:00 +33°C° 0 mm 5 mps 676 mmHg 38%
    18:00 +33°C° 0 mm 4 mps 676 mmHg 37%
    19:00 +31°C° 0 mm 2 mps 677 mmHg 37%
    20:00 +30°C° 0 mm 1 mps 677 mmHg 37%
    21:00 +30°C° 0 mm 1 mps 678 mmHg 40%
    22:00 +29°C° 0 mm 1 mps 678 mmHg 43%
    23:00 +28°C° 0 mm 1 mps 678 mmHg 45%

    18 November, Monday

    Time Temperature Precipitation Wind Pressure Humidity
    00:00 +28°C° 0 mm 2 mps 678 mmHg 48%
    01:00 +27°C° 0 mm 2 mps 678 mmHg 50%
    02:00 +27°C° 0 mm 2 mps 678 mmHg 52%
    03:00 +26°C° 0.1 mm 1 mps 678 mmHg 57%
    04:00 +26°C° 0.1 mm 1 mps 678 mmHg 61%
    05:00 +25°C° 0.1 mm 1 mps 678 mmHg 65%
    06:00 +27°C° 0.2 mm 1 mps 679 mmHg 61%
    07:00 +28°C° 0.2 mm 2 mps 679 mmHg 57%
    08:00 +30°C° 0.2 mm 3 mps 680 mmHg 53%
    09:00 +34°C° 0 mm 3 mps 680 mmHg 44%
    10:00 +36°C° 0 mm 2 mps 680 mmHg 36%
    11:00 +39°C° 0 mm 2 mps 681 mmHg 28%
    12:00 +39°C° 0 mm 2 mps 680 mmHg 27%
    13:00 +39°C° 0 mm 2 mps 679 mmHg 26%
    14:00 +39°C° 0 mm 2 mps 678 mmHg 26%
    15:00 +37°C° 0.3 mm 3 mps 678 mmHg 32%
    16:00 +35°C° 0.3 mm 4 mps 678 mmHg 38%
    17:00 +32°C° 0.3 mm 5 mps 678 mmHg 44%
    18:00 +30°C° 0.5 mm 5 mps 678 mmHg 49%
    19:00 +29°C° 0.5 mm 4 mps 679 mmHg 54%
    20:00 +28°C° 0.5 mm 4 mps 679 mmHg 59%
    21:00 +27°C° 0 mm 4 mps 679 mmHg 62%
    22:00 +27°C° 0 mm 3 mps 680 mmHg 66%
    23:00 +26°C° 0 mm 2 mps 680 mmHg 70%

    19 November, Tuesday

    Time Temperature Precipitation Wind Pressure Humidity
    00:00 +26°C° 0.2 mm 2 mps 680 mmHg 71%
    01:00 +25°C° 0.2 mm 3 mps 680 mmHg 73%
    02:00 +25°C° 0.2 mm 3 mps 680 mmHg 74%
    03:00 +24°C° 0.5 mm 3 mps 680 mmHg 77%
    04:00 +24°C° 0.5 mm 2 mps 680 mmHg 79%
    05:00 +24°C° 0.5 mm 2 mps 680 mmHg 81%
    06:00 +25°C° 0.4 mm 1 mps 680 mmHg 75%
    07:00 +26°C° 0.4 mm 1 mps 681 mmHg 70%
    08:00 +28°C° 0.4 mm 1 mps 681 mmHg 64%
    09:00 +30°C° 0 mm 1 mps 682 mmHg 55%
    10:00 +32°C° 0 mm 2 mps 682 mmHg 47%
    11:00 +35°C° 0 mm 2 mps 682 mmHg 38%
    12:00 +36°C° 0 mm 2 mps 681 mmHg 36%
    13:00 +36°C° 0 mm 2 mps 680 mmHg 34%
    14:00 +37°C° 0 mm 2 mps 680 mmHg 33%
    15:00 +35°C° 0.1 mm 2 mps 679 mmHg 38%
    16:00 +34°C° 0.1 mm 2 mps 679 mmHg 42%
    17:00 +31°C° 0.1 mm 2 mps 678 mmHg 47%
    18:00 +29°C° 2 mm 3 mps 678 mmHg 59%
    19:00 +27°C° 2 mm 4 mps 679 mmHg 70%
    20:00 +23°C° 2 mm 5 mps 679 mmHg 82%
    21:00 +24°C° 1.7 mm 3 mps 679 mmHg 81%
    22:00 +25°C° 1.7 mm 2 mps 680 mmHg 80%
    23:00 +23°C° 1.7 mm 0 mps 681 mmHg 79%

    20 November, Wednesday

    Time Temperature Precipitation Wind Pressure Humidity
    00:00 +24°C° 2.6 mm 1 mps 680 mmHg 83%
    01:00 +24°C° 2.6 mm 2 mps 680 mmHg 87%
    02:00 +23°C° 2.6 mm 2 mps 680 mmHg 91%
    03:00 +23°C° 0.4 mm 2 mps 680 mmHg 90%
    04:00 +23°C° 0.4 mm 2 mps 680 mmHg 89%
    05:00 +24°C° 0.4 mm 1 mps 680 mmHg 87%
    06:00 +24°C° 0 mm 1 mps 680 mmHg 83%
    07:00 +25°C° 0 mm 2 mps 681 mmHg 78%
    08:00 +26°C° 0 mm 2 mps 681 mmHg 73%
    09:00 +27°C° 0 mm 2 mps 681 mmHg 67%
    10:00 +28°C° 0 mm 2 mps 681 mmHg 61%
    11:00 +30°C° 0 mm 2 mps 681 mmHg 55%
    12:00 +31°C° 0 mm 2 mps 681 mmHg 49%
    13:00 +34°C° 0 mm 2 mps 681 mmHg 43%
    14:00 +36°C° 0 mm 2 mps 680 mmHg 36%
    15:00 +34°C° 0 mm 2 mps 680 mmHg 42%
    16:00 +33°C° 0 mm 3 mps 679 mmHg 47%
    17:00 +30°C° 0 mm 3 mps 678 mmHg 52%
    18:00 +29°C° 0 mm 2 mps 679 mmHg 56%
    19:00 +28°C° 0 mm 2 mps 679 mmHg 59%
    20:00 +28°C° 0 mm 1 mps 679 mmHg 62%
    21:00 +27°C° 0 mm 1 mps 680 mmHg 63%
    22:00 +27°C° 0 mm 1 mps 680 mmHg 64%
    23:00 +27°C° 0 mm 1 mps 681 mmHg 65%
    Show more